星链-5995 (STARLINK-5995 )

导读 | 豆包AI

STARLINK-5995是美国SpaceX公司星链星座中的一颗V1.5批次互联网卫星,于2023年5月10日发射。卫星重约297公斤,运行在高度约548公里的近地轨道,配备氪离子推进系统与相控阵通信天线,可提供高速低延迟卫星互联网接入服务,目前已正常在轨运行近3年,是全球最大卫星互联网星座的组成部分,助力实现全球覆盖。

Basic Information
目录编号:
56456
目录名称:
STARLINK-5995
国际标识:
2023-064J
轨道中心:
EARTH
卫星名称:
星链-5995
卫星全名:
星链-5995 (STARLINK-5995 )
卫星状态:
在轨 (已飞行1040 天)
发射日期:
2023-05-10 UTC
国别 :
美国 (US)
星等 :
--
Orbit Information
数据来源 国际轨道数据 AOE轨道数据
星历时间 2026-03-14T10:06:15+0800
1天前
查看轨道信息
2026-03-11T10:00:00+0800
4天前
查看轨道信息
半长轴 6952.074km 6950.192km
偏心率 0.0002151 0.0003136
轨道倾角 70.001° 70.000°
近地点辐角 188.391° 272.983°
升交点赤经 133.418° 140.989°
平近点角 171.721° 89.470°
近地点 572.441km 569.875km
远地点 575.433km 574.235km
周期 96.146分钟 96.107分钟
每日圈数 14.977222 14.983304
Detailed Information
固有亮度:
5
最大亮度:
2.5
卫星平台:
Starlink v1.5
覆盖范围:
全球
运营商:
太空探索技术公司
运营商所在国:
美国
制造商(研发单位):
太空探索技术公司
制造商所在国:
美国
使用方式:
暂无
Satellite Introduction
星链(Starlink)计划是由太空探索技术公司(SpaceX)提出的一个巨型低轨卫星互联网星座项目,计划在2019年至2024年间在太空搭建由约1.2万颗卫星组成的“星链”网络,其中1584颗将部署在地球上空550千米处的近地轨道,并从2020年开始工作。该卫星仍在工作。
2D Orbit Map
3D Orbit Map
Orbit Altitude Analysis Chart
Orbit Inclination Analysis Chart
Orbit Comprehensive Analysis Chart
View Comprehensive Chart